Voltar ao catálogo

BREEZE-M DEB

LostHEO
NORAD 34260·DEBRIS·🇷🇺 Russia

Lançado Feb 28, 2006 de Baikonur Cosmodrome

Loading…

Próximas Passagens (próximas 24 horas)

TLE

ObsoletoSource: Space-Track

Época: Apr 7, 2026, 21:38 UTC

1 34260U 06006CB  26097.90168928  .00003015  00000-0  11747-1 0  9994
2 34260  52.0458 263.5203 4825882 226.1486  82.2610  5.50794621 96786

Acompanhe BREEZE-M DEB em tempo real com AllMySat

Download on the App Store